This demonstration page uses our WeatherBlox Daily Observations layout. Learn more.

Left ArrowRight Arrow

39.51506, -84.39828

Hourly Observations for June 9, 2015

Temp ( °F °C ) Dew Point ( °F °C ) Humidity (%) Winds ( mph kmh ) Pressure ( in mb ) Visibility ( mi km ) Precip ( " mm )
12:15 am 00:15 Cloudy with Light Rain 61 16.1 57 14 87 87 SW 6 9 29.85 1011 7 11 N/A
12:35 am 00:35 Cloudy with Rain 61 16 57 14 88 88 SW 7 11 29.85 1011 7 11 N/A
12:55 am 00:55 Cloudy with Light Rain 61 16 57 14 88 88 SSE 7 11 29.83 1010 7 11 N/A
1:15 am 01:15 Partly Cloudy 61 16 57 13.8 87 87 SW 6 9 29.83 1010 10 16 N/A
1:35 am 01:35 Clear 60 15.5 56 13.5 88 88 N N/A 29.83 1010 10 16 N/A
1:55 am 01:55 Clear 60 15.3 56 13.3 88 88 N N/A 29.80 1009 10 16 N/A
2:15 am 02:15 Clear 60 15.3 56 13.4 89 89 N N/A 29.83 1010 10 16 N/A
2:35 am 02:35 Clear 60 15.3 56 13.5 89 89 N N/A 29.83 1010 10 16 N/A
2:55 am 02:55 Clear 60 15.3 56 13.5 89 89 SW 6 9 29.80 1009 10 16 N/A
3:15 am 03:15 Clear 60 15.3 56 13.5 89 89 SSW 6 9 29.80 1009 10 16 N/A
3:35 am 03:35 Clear 60 15.3 56 13.5 89 89 SW 7 11 29.80 1009 10 16 N/A
3:55 am 03:55 Clear 60 15.3 56 13.5 89 89 SSW 5 7 29.80 1009 10 16 N/A
4:15 am 04:15 Clear 60 15.3 56 13.5 89 89 SW 7 11 29.80 1009 10 16 N/A
4:35 am 04:35 Clear 60 15.3 56 13.5 89 89 SW 6 9 29.83 1010 7 11 N/A
4:55 am 04:55 Partly Cloudy 60 15.3 56 13.5 89 89 SW 6 9 29.83 1010 7 11 N/A
5:15 am 05:15 Mostly Cloudy with Mist and Fog 60 15.3 56 13.5 89 89 SW 5 7 29.83 1010 5 8 N/A
5:35 am 05:35 Partly Cloudy with Mist and Fog 60 15.3 56 13.5 89 89 SW 5 7 29.83 1010 3 5 N/A
5:55 am 05:55 Partly Cloudy with Mist and Fog 60 15.3 56 13.5 89 89 SW 3 6 29.83 1010 3 5 N/A
6:15 am 06:15 Sunny with Mist and Fog 59 14.9 56 13.1 89 89 SSW 3 6 29.83 1010 3 5 N/A
6:35 am 06:35 Sunny with Mist and Fog 60 15.3 56 13.6 90 90 SSW 3 6 29.83 1010 3 4 N/A
6:55 am 06:55 Sunny with Mist and Fog 60 15.3 56 13.6 90 90 SW 3 6 29.83 1010 3 4 N/A
7:15 am 07:15 Sunny with Mist and Fog 60 15.3 56 13.6 90 90 N N/A 29.83 1010 3 5 N/A
7:35 am 07:35 Sunny with Mist and Fog 60 15.3 56 13.6 90 90 N N/A 29.85 1011 4 6 N/A
7:55 am 07:55 Sunny with Mist and Fog 61 16 57 14.1 89 89 N N/A 29.85 1011 5 8 N/A
8:15 am 08:15 Sunny with Mist and Fog 61 16.3 58 14.5 89 89 SW 5 7 29.85 1011 5 8 N/A
8:35 am 08:35 Sunny with Mist and Fog 62 16.6 58 14.7 89 89 N N/A 29.85 1011 5 8 N/A
8:55 am 08:55 Sunny 63 17.2 59 15.2 88 88 N N/A 29.85 1011 7 11 N/A
9:15 am 09:15 Sunny 64 18 60 15.7 87 87 N N/A 29.85 1011 7 11 N/A
9:35 am 09:35 Sunny 67 19.5 63 17 86 86 N N/A 29.85 1011 7 11 N/A
9:55 am 09:55 Sunny 69 20.8 64 18 84 84 N N/A 29.85 1011 10 16 N/A
10:15 am 10:15 Sunny 69 20.8 63 17.3 80 80 N N/A 29.85 1011 10 16 N/A
10:35 am 10:35 Sunny 70 20.9 61 16.2 75 75 N N/A 29.85 1011 10 16 N/A
10:55 am 10:55 Sunny 74 23.2 64 18 73 73 N N/A 29.85 1011 10 16 N/A
11:15 am 11:15 Sunny 74 23.6 64 17.6 69 69 N N/A 29.85 1011 10 16 N/A
11:35 am 11:35 Sunny 74 23.6 62 16.5 65 65 W 6 9 29.85 1011 10 16 N/A
11:55 am 11:55 Sunny 74 23.6 58 14.3 56 56 W 7 11 29.85 1011 10 16 N/A
12:15 pm 12:15 Sunny 77 25.1 61 15.9 57 57 WSW 6 9 29.85 1011 10 16 N/A
12:35 pm 12:35 Sunny 77 25.1 60 15.3 55 55 W 5 7 29.85 1011 10 16 N/A
12:55 pm 12:55 Sunny 77 25.1 57 14.1 51 51 W 9 15 29.85 1011 10 16 N/A
1:15 pm 13:15 Sunny 80 26.5 59 14.9 49 49 WNW 7 11 29.83 1010 10 16 N/A
1:35 pm 13:35 Sunny 80 26.5 59 15.1 50 50 W 7 11 29.83 1010 10 16 N/A
1:55 pm 13:55 Sunny 80 26.5 58 14.7 48 48 NNW 9 15 29.83 1010 10 16 N/A
2:15 pm 14:15 Sunny 80 26.5 58 14.3 47 47 NNW 10 17 29.83 1010 10 16 N/A
2:35 pm 14:35 Sunny 80 26.5 58 14.4 47 47 WNW 10 17 29.83 1010 10 16 N/A
2:55 pm 14:55 Sunny 80 26.5 58 14.5 48 48 WNW 9 15 29.83 1010 10 16 N/A
3:20 pm 15:20 Partly Cloudy 80 26.5 58 14.2 47 47 W 9 15 29.83 1010 10 16 N/A
3:35 pm 15:35 Partly Cloudy 81 27.1 57 14 45 45 W 8 13 29.83 1010 10 16 N/A
3:55 pm 15:55 Partly Cloudy 81 27.2 57 14 44 44 NW 10 17 29.83 1010 10 16 N/A
4:15 pm 16:15 Sunny 80 26.5 56 13.5 45 45 WNW 10 17 29.83 1010 10 16 N/A
4:35 pm 16:35 Sunny 81 27.1 58 14.4 46 46 W 9 15 29.83 1010 10 16 N/A
4:55 pm 16:55 Partly Cloudy 80 26.5 57 14 46 46 NW 5 7 29.83 1010 10 16 N/A
5:15 pm 17:15 Partly Cloudy 80 26.5 57 14 46 46 NW 7 11 29.83 1010 10 16 N/A
5:35 pm 17:35 Sunny 80 26.5 59 14.9 49 49 NW 5 7 29.83 1010 10 16 N/A
5:55 pm 17:55 Sunny 80 26.5 59 14.8 49 49 NW 5 7 29.83 1010 10 16 N/A
6:15 pm 18:15 Sunny 80 26.5 58 14.3 47 47 NNW 5 7 29.83 1010 10 16 N/A
6:35 pm 18:35 Sunny 80 26.5 61 16 53 53 NW 3 6 29.80 1009 10 16 N/A
6:55 pm 18:55 Sunny 78 25.3 61 16.2 57 57 N N/A 29.83 1010 10 16 N/A
7:15 pm 19:15 Sunny 77 25.1 61 16.2 58 58 N N/A 29.83 1010 10 16 N/A
7:35 pm 19:35 Sunny 77 25.1 64 18 65 65 N N/A 29.83 1010 10 16 N/A
7:55 pm 19:55 Sunny 74 23.6 62 16.5 65 65 N N/A 29.83 1010 10 16 N/A
8:15 pm 20:15 Sunny 74 23.6 68 19.8 79 79 N N/A 29.83 1010 10 16 N/A
8:35 pm 20:35 Sunny 72 22.3 66 18.8 81 81 N N/A 29.83 1010 10 16 N/A
8:55 pm 20:55 Sunny 70 21.3 64 17.8 81 81 N N/A 29.83 1010 10 16 N/A
9:15 pm 21:15 Clear 69 20.8 64 18 84 84 N N/A 29.83 1010 10 16 N/A
9:35 pm 21:35 Clear 69 20.8 65 18.2 85 85 N 3 6 29.85 1011 10 16 N/A
9:55 pm 21:55 Clear 68 20 64 17.5 86 86 N N/A 29.85 1011 7 11 N/A
10:15 pm 22:15 Clear 64 18 60 15.8 87 87 N N/A 29.85 1011 7 11 N/A
10:35 pm 22:35 Clear 63 17.3 59 15.1 87 87 N N/A 29.88 1012 7 11 N/A
10:55 pm 22:55 Clear 63 17 59 15 88 88 N N/A 29.88 1012 7 11 N/A
11:15 pm 23:15 Clear 62 16.6 58 14.6 88 88 N N/A 29.88 1012 7 11 N/A
11:35 pm 23:35 Clear 62 16.6 58 14.7 89 89 N N/A 29.88 1012 7 11 N/A
11:55 pm 23:55 Clear with Mist and Fog 62 16.6 58 14.6 88 88 N N/A 29.88 1012 5 8 N/A

Powered by AerisWeather